Location: Berlise
(49.6641°N, 4.1077°E)
Time: 03:12:39
(UTC+00:00)

Meteor 1-31 Rocket - Pass Details

Date: 27 January 2021
Orbit: 521 x 545 km, 97.6° (Epoch: 24 February)

Event Time Altitude Azimuth Distance (km) Brightness Sun altitude
Rises 05:47:37 0° 2° (N) 2,709 6.3 -15.3°
Reaches altitude 10° 05:50:03 10° 348° (NNW) 1,816 5.2 -14.9°
Enters shadow 05:52:32 22° 310° (NW) 1,223 4.1 -14.5°
